Weather History for KHRT - October, 2013

Change the Weather History Date:

Thursday, October 3, 2013

  Actual Average Record
Temperature  
Mean Temperature 76 °F -  
Max Temperature 84 °F 80 °F 89 °F (2004)
Min Temperature 68 °F 64 °F 53 °F (2003)
Cooling Degree Days 11    
Growing Degree Days 26 (Base 50)    
Moisture  
Dew Point 70 °F    
Average Humidity 75    
Maximum Humidity 90    
Minimum Humidity 62    
Precipitation  
Precipitation 0.00 in - - ()
Sea Level Pressure  
Sea Level Pressure 30.04 in    
Wind  
Wind Speed 7 mph (East)    
Max Wind Speed 12 mph    
Max Gust Speed -    
Visibility 10 miles    
Events Rain    
Averages and records for this station are not official NWS values.
T = Trace of Precipitation, MM = Missing Value Source: NWS Daily Summary

Daily Weather History Graph

Daily Weather History Graph

Search for Another Location

Airport or City:

Trip Planner

Search our weather history database for the weather conditions in past years. The results will help you decide how hot, cold, wet, or windy it might be!

Date:

Astronomy

Oct. 03, 2013 Rise Set
Actual Time 6:41 AM CDT 6:29 PM CDT
Civil Twilight 6:17 AM CDT 6:53 PM CDT
Nautical Twilight 5:49 AM CDT 7:21 PM CDT
Astronomical Twilight 5:21 AM CDT 7:48 PM CDT
Moon 5:18 AM CDT (10/3) 5:35 PM CDT (10/3)
Length of Visible Light 12h 35m
Length of Day
11h 47m
Waning Crescent, 2% of the Moon is Illuminated
Oct 3
Waning Crescent
Oct 4
New
Oct 11
First Quarter
Oct 18
Full
Oct 26
Last Quarter

Hourly Weather History & Observations

Time (CDT) Temp. Heat Index Dew Point Humidity Pressure Visibility Wind Dir Wind Speed Gust Speed Precip Events Conditions
12:58 AM 71.4 °F - 68.2 °F 89% 30.04 in 10.0 mi East 5.8 mph - N/A   Clear
1:58 AM 71.4 °F - 68.0 °F 89% 30.03 in 10.0 mi East 6.9 mph - N/A   Mostly Cloudy
2:58 AM 70.9 °F - 67.8 °F 90% 30.01 in 10.0 mi ENE 5.8 mph - N/A   Clear
3:58 AM 69.8 °F - 66.7 °F 90% 30.00 in 10.0 mi ENE 5.8 mph - N/A   Clear
4:58 AM 69.4 °F - 65.8 °F 88% 30.00 in 10.0 mi ENE 5.8 mph - N/A   Clear
5:58 AM 68.5 °F - 65.3 °F 89% 30.02 in 10.0 mi NE 4.6 mph - N/A   Clear
6:58 AM 68.5 °F - 65.7 °F 90% 30.02 in 10.0 mi ENE 5.8 mph - N/A   Clear
7:58 AM 72.1 °F - 68.2 °F 87% 30.04 in 10.0 mi East 8.1 mph - N/A   Clear
8:58 AM 77.0 °F - 69.8 °F 78% 30.04 in 10.0 mi East 9.2 mph - N/A   Scattered Clouds
9:58 AM 78.8 °F - 69.8 °F 74% 30.07 in 10.0 mi East 9.2 mph - N/A   Partly Cloudy
10:55 AM 80.6 °F 84.6 °F 71.6 °F 74% 30.08 in 10.0 mi East 9.2 mph - N/A   Partly Cloudy
11:13 AM 82.4 °F 87.2 °F 71.6 °F 70% 30.07 in 10.0 mi East 10.4 mph - N/A Rain Light Rain
11:26 AM 82.4 °F 87.2 °F 71.6 °F 70% 30.06 in 10.0 mi East 11.5 mph - N/A   Partly Cloudy
11:29 AM 82.4 °F 87.2 °F 71.6 °F 70% 30.06 in 10.0 mi East 10.4 mph - N/A   Light Drizzle
11:39 AM 82.4 °F 87.2 °F 71.6 °F 70% 30.06 in 10.0 mi East 8.1 mph - N/A   Clear
11:58 AM 83.1 °F 88.1 °F 71.8 °F 68% 30.07 in 10.0 mi East 10.4 mph - 0.00 in   Scattered Clouds
12:13 PM 84.2 °F 89.6 °F 71.6 °F 66% 30.05 in 10.0 mi ESE 9.2 mph - N/A   Mostly Cloudy
12:23 PM 84.2 °F 89.6 °F 71.6 °F 66% 30.05 in 10.0 mi East 9.2 mph - N/A   Partly Cloudy
12:58 PM 82.9 °F 87.2 °F 70.3 °F 66% 30.06 in 10.0 mi East 9.2 mph - N/A   Mostly Cloudy
1:58 PM 83.7 °F 87.5 °F 69.4 °F 62% 30.03 in 10.0 mi East 10.4 mph - N/A   Partly Cloudy
2:58 PM 82.4 °F 86.3 °F 69.8 °F 66% 30.04 in 10.0 mi SE 11.5 mph - N/A   Clear
3:58 PM 81.3 °F 85.4 °F 71.1 °F 71% 30.02 in 10.0 mi SE 8.1 mph - N/A   Clear
4:58 PM 80.8 °F 84.7 °F 71.2 °F 73% 30.02 in 10.0 mi SE 9.2 mph - N/A   Clear
5:58 PM 80.2 °F 83.7 °F 71.1 °F 73% 30.01 in 10.0 mi SE 6.9 mph - N/A   Partly Cloudy
6:43 PM 80.6 °F 83.9 °F 69.8 °F 70% 30.01 in 10.0 mi ESE 5.8 mph - N/A Rain Light Rain
6:51 PM 80.6 °F 83.9 °F 69.8 °F 70% 30.01 in 10.0 mi SE 3.5 mph - N/A   Clear
6:58 PM 79.9 °F - 70.3 °F 73% 30.02 in 10.0 mi SE 4.6 mph - 0.00 in   Clear
7:58 PM 79.9 °F - 71.8 °F 76% 30.04 in 10.0 mi ESE 4.6 mph - N/A   Partly Cloudy
8:58 PM 79.9 °F - 70.3 °F 73% 30.04 in 10.0 mi ESE 4.6 mph - N/A   Clear
9:58 PM 79.9 °F - 70.3 °F 73% 30.06 in 10.0 mi ESE 5.8 mph - N/A   Clear
11:58 PM 78.8 °F - 70.7 °F 76% 30.04 in 10.0 mi East 3.5 mph - N/A   Clear